This is the latest recevied weather packets stored in our database for station/object N0FDH. If no packets are shown the sender has not sent any weather packets the latest 10 day(s).
| Time | Temp. | Humidity | Pressure | Rain* | Wind** | Luminosity | Snow |
|---|---|---|---|---|---|---|---|
| 1778201930 | 11.11° C | 38% | 1008.6 hPa | 0 mm | - | 12 W/m² | - |
| 1778201626 | 11.67° C | 43% | 1008.7 hPa | 0 mm | - | 13 W/m² | - |
| 1778201323 | 11.67° C | 40% | 1008.6 hPa | 0 mm | - | 14 W/m² | - |
| 1778201019 | 11.67° C | 39% | 1008.7 hPa | 0 mm | - | 22 W/m² | - |
| 1778200715 | 11.67° C | 37% | 1008.7 hPa | 0 mm | - | 26 W/m² | - |
| 1778200413 | 11.67° C | 44% | 1008.6 hPa | 0 mm | - | 27 W/m² | - |
| 1778200110 | 11.67° C | 37% | 1008.7 hPa | 0 mm | - | 26 W/m² | - |
| 1778199806 | 11.67° C | 38% | 1008.8 hPa | 0 mm | - | 33 W/m² | - |
| 1778199502 | 12.22° C | 39% | 1008.7 hPa | 0 mm | - | 42 W/m² | - |
| 1778199199 | 12.22° C | 36% | 1008.6 hPa | 0 mm | - | 57 W/m² | - |
| 1778198895 | 11.67° C | 39% | 1008.7 hPa | 0 mm | - | 67 W/m² | - |
| 1778198592 | 11.67° C | 37% | 1008.7 hPa | 0 mm | - | 64 W/m² | - |
| 1778198288 | 11.67° C | 36% | 1009 hPa | 0 mm | - | 55 W/m² | - |
| 1778197986 | 11.67° C | 37% | 1008.8 hPa | 0 mm | - | 47 W/m² | - |
| 1778197683 | 11.67° C | 35% | 1008.8 hPa | 0 mm | - | 55 W/m² | - |
| 1778197379 | 11.67° C | 37% | 1009 hPa | 0 mm | - | 50 W/m² | - |
| 1778197075 | 11.67° C | 35% | 1008.9 hPa | 0 mm | - | 84 W/m² | - |
| 1778196773 | 11.67° C | 36% | 1008.7 hPa | 0 mm | - | 81 W/m² | - |
| 1778196471 | 11.67° C | 37% | 1008.8 hPa | 0 mm | - | 95 W/m² | - |
| 1778196167 | 11.67° C | 35% | 1008.8 hPa | 0 mm | - | 87 W/m² | - |
| 1778195864 | 11.67° C | 38% | 1008.9 hPa | 0 mm | - | 96 W/m² | - |
| 1778195561 | 11.67° C | 39% | 1008.9 hPa | 0 mm | - | 114 W/m² | - |
| 1778195257 | 12.22° C | 38% | 1009 hPa | 0 mm | - | 96 W/m² | - |
| 1778194955 | 11.67° C | 36% | 1008.9 hPa | 0 mm | - | 99 W/m² | - |
| 1778194654 | 11.67° C | 35% | 1009.1 hPa | 0 mm | - | 135 W/m² | - |
* Rain latest hour (hover to see other rain measurements)
** Current wind speed in m/s (hover to see current wind gust speed)